Regional Weather Roundup
Issued by NWS

Home | Current Version | Previous Version | Text Only | Print | Product List | Glossary Off
Versions: 1 2 3 4 5 6 7 8 9 10 11 12 13 14 15 16 17 18 19 20 21 22 23 24 25 26 27 28 29 30 31 32 33 34 35 36 37 38 39 40 41 42 43 44 45 46 47 48 49 50

000
ASUS43 KIND 170509
RWRIN

WEATHER ROUNDUP FOR INDIANA
NATIONAL WEATHER SERVICE INDIANAPOLIS IN
1200 AM EST WED JAN 17 2018

NOTE: "FAIR" INDICATES FEW OR NO CLOUDS BELOW 12,000 FEET WITH NO
SIGNIFICANT WEATHER AND/OR OBSTRUCTIONS TO VISIBILITY.

* - STATION DOES NOT REPORT WEATHER SUCH AS PRECIPITATION OR FOG.

+ - STATION NOT QUALITY CONTROLLED BY THE NATIONAL WEATHER SERVICE.
    USE DATA WITH CAUTION...ESPECIALLY DEWPOINT AND RELATIVE
    HUMIDITY OBSERVATIONS.

INZ001>003-010>013-019-020-170600-
NORTHWEST INDIANA

CITY           SKY/WX    TMP DP  RH WIND       PRES   REMARKS
GARY /AIRPORT/ FAIR      16   9  74 W9        30.53S WCI   5
KNOX *+        CLOUDY    14  12  92 W13       30.49F WCI   0
LA PORTE +     LGT SNOW  15  13  92 E6        30.48S WCI   6
MICHIGAN CITY+ LGT SNOW  21  19  93 CALM      30.49S
MONTICELLO +   MOCLDY     7   4  85 W7        30.53S WCI  -4
RENSSELAER +   CLOUDY    10   5  79 W7        30.53S WCI   0
VALPARAISO     FAIR      14   9  80 W10       30.48F WCI   1

$$

LMZ046-743>745-170600-
SOUTHERN LAKE MICHIGAN

STATION/POSITION TIME  TEMP    WIND        PRES    WAVE
                       AIR SEA DIR/SP/G            HT
                 (UTC) (F)     (DEG/KT/KT) (MB)    (FT)
BURNS HARBOR     0440   24     310/ 14/ 21 1032.8S
MICHIGAN CITY    0440   22      50/ 13/ 14   N/A

$$

INZ004-005-014>016-021>024-170600-
NORTH CENTRAL INDIANA

CITY           SKY/WX    TMP DP  RH WIND       PRES   REMARKS
GOSHEN         MOCLDY     4   0  83 SW5       30.48S WCI  -5
LOGANSPORT +   FLURRIES   9   3  78 SW8       30.53S WCI  -4
PERU/GRISSOM   CLOUDY     9   9 100 W10       30.50F BLWGSNOWWCI  -6
ROCHESTER +    FLURRIES  12  10  92 SW6       30.51S WCI   3
SOUTH BEND     FLURRIES  11   9  92 SW5       30.48F WCI   3
WARSAW +       CLOUDY     7   3  85 CALM      30.49S

$$

INZ006>009-017-018-025>027-170600-
NORTHEAST INDIANA

CITY           SKY/WX    TMP DP  RH WIND       PRES   REMARKS
AUBURN +       FAIR       9   3  78 SW3       30.49S
FORT WAYNE     CLOUDY     9   5  84 SW10      30.51S WCI  -5
HUNTINGTON +   FAIR       4   1  88 SW6       30.51S WCI  -7
KENDALLVILLE + FAIR       2   0  88 CALM      30.47S

$$

INZ028-029-035-036-043>045-051>053-170600-
WEST CENTRAL INDIANA

CITY           SKY/WX    TMP DP  RH WIND       PRES   REMARKS
CRAWFORDSVL +  FLURRIES   6   4  89 MISG        N/A
GREENCASTLE +  LGT SNOW   9   3  78 W3        30.57S
LAFAYETTE      FAIR       5   3  91 SW7       30.56S WCI  -7
TERRE HAUTE    CLOUDY     8   2  76 W6        30.62S WCI  -2

$$

INZ030>032-037>040-046>048-054>057-064-065-170600-
CENTRAL INDIANA

CITY           SKY/WX    TMP DP  RH WIND       PRES   REMARKS
FISHERS *+     CLOUDY     7   5  92 CALM      30.55
FRANKFORT +    FLURRIES   7   3  84 W9        30.55R WCI  -7
GREENWOOD *+   CLOUDY     8   2  78 W7        30.57S WCI  -4
INDIANAPOLIS   FLURRIES   6   2  83 SW7       30.56S WCI  -6
-EAGLE CREEK   CLOUDY     7   2  80 SW3       30.55F
MARION +       FAIR       3   0  87 CALM      30.53S
MT COMFORT *+  CLOUDY     7   5  92 SW7       30.55S WCI  -5
SHELBYVILLE    CLOUDY     7   0  73 W7        30.56F WCI  -5
ZIONSVILLE +   FLURRIES   5   2  86 SW8       30.54S WCI  -8

$$

INZ033-034-041-042-049-050-058-059-170600-
EAST CENTRAL INDIANA

CITY           SKY/WX    TMP DP  RH WIND       PRES   REMARKS
MUNCIE         CLOUDY     9   3  77 SW12      30.52S WCI  -6
RICHMOND +     FLURRIES   5   3  92 W12       30.51S WCI -11

$$

INZ060-061-067>069-081>083-085>088-170600-
SOUTHWEST INDIANA

CITY           SKY/WX    TMP DP  RH WIND       PRES   REMARKS
EVANSVILLE     CLOUDY     8   4  83 VRB7      30.67S WCI  -3
HUNTINGBURG +  FLURRIES   1  -2  87 CALM      30.64F
WASHINGTON +   FLURRIES   6   0  78 W3        30.64F

$$

INZ062-063-066-070>080-084-089>092-170600-
SOUTH CENTRAL AND SOUTHEAST INDIANA

CITY           SKY/WX    TMP DP  RH WIND       PRES   REMARKS
BATESVILLE *+    N/A    N/A N/A N/A MISG        N/A
BEDFORD +      FLURRIES   7   1  78 CALM      30.60F
BLOOMINGTON    FLURRIES   6   0  76 W6        30.58F WCI  -4
FRENCH LICK *+ CLOUDY     5   0  78 CALM      30.60F
MADISON *+     CLOUDY     7   1  78 CALM      30.60S
NORTH VERNON + FLURRIES   5   0  78 W6        30.59F WCI  -6
SEYMOUR +      FLURRIES   9   1  72 W5        30.61F WCI   0

$$





USA.gov is the U.S. government's official web portal to all federal, state and local government web resources and services.